Back to catalog

SL-12 R/B

AUX MOTOR

AliveLEO
NORAD 15335·ROCKET BODY·🇷🇺 Russia

Launched Sep 28, 1984 from Baikonur Cosmodrome

Loading…

Next Passes (next 24 hours)

TLE

FreshSource: Space-Track

Epoch: Sep 14, 2026, 14:48 UTC

1 15335U 84106C   26257.61705354 -.00000043  00000-0  18790-4 0  9996
2 15335  66.5511 116.2581 0014237 197.3060 194.1134 14.23165272176875

Track SL-12 R/B in real time with AllMySat

Download on the App Store